Location: Newark
(46.3500°N, 3.3050°E)
Time: 17:12:23
(UTC+00:00)

ISS - Visible Passes

Search period start: 18 October 2019 00:00
Search period end: 28 October 2019 00:00
Orbit: 411 x 421 km, 51.6° (Epoch: 19 October)

Date Brightness Start Highest point End Pass type
(mag) Time Alt. Az. Time Alt. Az. Time Alt. Az.
23 Oct -0.9 05:36:32 10° S 05:38:56 18° SE 05:41:22 10° E visible
24 Oct -0.6 04:49:25 10° SSE 04:50:34 11° SE 04:51:44 10° ESE visible
25 Oct -2.5 05:35:01 10° SW 05:38:13 42° SE 05:41:27 10° ENE visible
26 Oct -1.8 04:46:50 10° SSW 04:49:44 27° SE 04:52:38 10° E visible
27 Oct -1.3 04:00:52 17° SE 04:01:18 17° SE 04:03:35 10° E visible
27 Oct -3.8 05:34:17 10° WSW 05:37:39 86° NNW 05:41:03 10° ENE visible
